Location: Caltech
(34.1382°N, 118.1253°W)
Time: 14:47:08
(UTC-07:00)

Iridium 18 - Visible Passes

Search period start: 25 April 2015 00:00
Search period end: 05 May 2015 00:00
Orbit: 776 x 779 km, 86.4° (Epoch: 25 April)

Date Brightness Start Highest point End Pass type
(mag) Time Alt. Az. Time Alt. Az. Time Alt. Az.
25 Apr 7.3 20:17:40 10° NE 20:19:30 12° ENE 20:21:00 11° E visible
25 Apr 5.9 21:55:39 10° N 22:00:48 61° W 22:01:30 55° SW visible
26 Apr 5.4 21:22:06 10° N 21:27:18 69° E 21:28:31 51° SSE visible
26 Apr 8.3 23:06:18 10° WNW 23:07:31 10° W 23:08:19 10° W visible
27 Apr 6.2 20:48:58 10° NNE 20:53:41 35° E 20:55:34 27° ESE visible
27 Apr 7.6 22:30:17 10° NW 22:34:13 21° W 22:36:04 17° WSW visible
28 Apr 7.0 20:16:26 10° NE 20:19:53 18° ENE 20:22:37 13° ESE visible
28 Apr 6.6 21:55:59 10° NNW 22:00:51 40° W 22:03:08 26° SW visible
29 Apr 5.5 21:22:11 10° N 21:27:25 80° W 21:30:14 28° S visible
30 Apr 5.7 20:48:48 10° N 20:53:53 52° E 20:57:22 20° SSE visible
30 Apr 8.2 22:31:23 10° NW 22:34:12 14° W 22:36:43 10° WSW visible
01 May 6.5 20:15:50 10° NNE 20:20:11 27° E 20:24:31 10° SE visible
01 May 7.4 21:56:29 10° NNW 22:00:53 27° W 22:05:03 11° SW visible
02 May 6.2 21:22:25 10° NNW 21:27:29 53° W 21:32:14 12° SSW visible
03 May 5.4 20:48:47 10° N 20:54:01 79° E 20:59:14 10° S visible
04 May 6.0 20:15:32 10° NNE 20:20:25 40° E 20:25:19 10° SSE visible
04 May 8.0 21:57:15 10° NW 22:00:52 19° W 22:04:17 10° SW visible
